This demonstration page uses our WeatherBlox Daily Observations layout. Learn more.

Left ArrowRight Arrow

34.02893, -84.19858

Hourly Observations for November 28, 2019

Temp ( °F °C ) Dew Point ( °F °C ) Humidity (%) Winds ( mph kmh ) Pressure ( in mb ) Visibility ( mi km ) Precip ( " mm )
12:53 am 00:53 Clear 49 9.4 28 -2.2 44 44 WNW 12 19 30.19 1023 10 16 0.00 0.00
1:53 am 01:53 Clear 47 8.3 29 -1.7 50 50 WNW 12 19 30.22 1023 10 16 0.00 0.00
2:53 am 02:53 Clear 46 7.8 29 -1.7 51 51 NW 12 19 30.22 1023 10 16 0.00 0.00
3:53 am 03:53 Clear 44 6.7 29 -1.7 55 55 WNW 9 15 30.23 1024 10 16 0.00 0.00
4:53 am 04:53 Clear 44 6.7 29 -1.7 55 55 NW 13 20 30.23 1024 10 16 0.00 0.00
5:53 am 05:53 Clear 42 5.6 30 -1.1 62 62 NW 8 13 30.25 1025 10 16 0.00 0.00
6:53 am 06:53 Clear 42 5.6 30 -1.1 62 62 WNW 10 17 30.28 1026 10 16 0.00 0.00
7:53 am 07:53 Sunny 43 6.1 30 -1.1 60 60 NW 10 17 30.28 1026 10 16 0.00 0.00
8:53 am 08:53 Sunny 45 7.2 30 -1.1 56 56 NW 9 15 30.29 1026 10 16 0.00 0.00
9:53 am 09:53 Sunny 49 9.4 30 -1.1 48 48 WNW 12 19 30.30 1026 10 16 0.00 0.00
10:53 am 10:53 Sunny 52 11.1 30 -1.1 43 43 WNW 14 22 30.29 1026 10 16 0.00 0.00
11:53 am 11:53 Sunny 56 13.3 30 -1.1 37 37 NNW 12 19 30.27 1025 10 16 0.00 0.00
1:53 pm 13:53 Sunny 60 15.6 30 -1.1 32 32 NW 14 22 30.23 1024 10 16 0.00 0.00
2:53 pm 14:53 Sunny 60 15.6 31 -0.6 33 33 WNW 10 17 30.23 1024 10 16 0.00 0.00
3:53 pm 15:53 Sunny 58 14.4 31 -0.6 36 36 NW 10 17 30.23 1024 10 16 0.00 0.00
5:53 pm 17:53 Clear 53 11.7 32 0 45 45 NW 7 11 30.25 1024 10 16 0.00 0.00
6:53 pm 18:53 Clear 53 11.7 32 0 45 45 WNW 8 13 30.27 1025 10 16 0.00 0.00
7:53 pm 19:53 Clear 52 11.1 32 0 47 47 WNW 7 11 30.27 1025 10 16 0.00 0.00
8:53 pm 20:53 Clear 50 10 32 0 50 50 NW 7 11 30.28 1025 10 16 0.00 0.00
9:53 pm 21:53 Clear 50 10 32 0 50 50 NW 7 11 30.27 1025 10 16 0.00 0.00
10:53 pm 22:53 Clear 49 9.4 33 0.6 55 55 WNW 3 6 30.25 1024 10 16 0.00 0.00
11:53 pm 23:53 Cloudy 48 8.9 33 0.6 56 56 W 3 6 30.25 1025 10 16 0.00 0.00

Powered by AerisWeather